Regional Weather Roundup
Issued by NWS

Home | Current Version | Previous Version | Graphics & Text | Print | Product List | Glossary On
Versions: 1 2 3 4 5 6 7 8 9 10 11 12 13 14 15 16 17 18 19 20 21 22 23 24 25 26 27 28 29 30 31 32 33 34 35 36 37 38 39 40 41 42 43 44 45 46 47 48 49 50
000
ASUS43 KFSD 220810
RWRSD

WEATHER ROUNDUP FOR SOUTH DAKOTA
NATIONAL WEATHER SERVICE SIOUX FALLS SD
200 AM CST WED NOV 22 2017

NOTE: "FAIR" INDICATES FEW OR NO CLOUDS BELOW 12,000 FEET WITH NO
SIGNIFICANT WEATHER AND/OR OBSTRUCTIONS TO VISIBILITY.


SDZ001>005-009-010-012>017-220900-
NORTHWEST AND NORTH CENTRAL SOUTH DAKOTA

CITY           SKY/WX    TMP DP  RH WIND       PRES   REMARKS
BUFFALO          N/A     24  16  71 S9        30.00F WCI  14
FAITH            N/A     18  11  74 S17       30.12F WCI   3
MOBRIDGE       CLOUDY    19  14  81 S8        30.19F WCI   9
$$

SDZ012>016-024>037-041>051-057-063-072>074-220900-
SOUTHWEST AND SOUTH CENTRAL SOUTH DAKOTA

CITY           SKY/WX    TMP DP  RH WIND       PRES   REMARKS
RAPID CTY ARPT CLOUDY    25  18  74 SE5       30.11F WCI  19
PIERRE         CLOUDY    16   9  74 SE5       30.24F WCI   9
CUSTER         CLOUDY    34  24  67 SW5       30.11F WCI  30
ELLSWORTH AFB  CLOUDY    28  21  73 SW5       30.09F WCI  23
PHILIP         CLOUDY    20  16  84 E3        30.20F
PINE RIDGE     CLOUDY    34  27  75 SW8       30.16F WCI  27
SPEARFISH      FAIR      43  27  52 W10       30.07F
WINNER         FAIR      23  14  68 S8        30.26F WCI  14
$$

SDZ004>011-016>023-039-040-220900-
NORTHEAST SOUTH DAKOTA

CITY           SKY/WX    TMP DP  RH WIND       PRES   REMARKS
ABERDEEN       CLOUDY     2  -1  88 SW3       30.30F
WATERTOWN      CLOUDY    11   7  84 S3        30.28F
BROOKINGS      CLOUDY    12   7  80 SE3       30.31F
SISSETON         N/A      9   5  84 CALM      30.32F
$$

SDZ017-020-022-023-036>040-048>070-220900-
SOUTHEAST SOUTH DAKOTA

CITY           SKY/WX    TMP DP  RH WIND       PRES   REMARKS
SIOUX FALLS    CLOUDY    13   7  77 S3        30.34F
HURON          CLOUDY     9   5  84 S3        30.33F
CHAMBERLAIN    CLOUDY    15  12  86 CALM      30.30F
MITCHELL       CLOUDY    13   8  81 S5        30.36F WCI   5
YANKTON        CLOUDY    15  10  80 CALM      30.37F
$$

ABBREVIATIONS USED IN REMARKS
   TC - TEMPERATURE IN CELSIUS
  WCI - WIND CHILL INDEX
   HX - HEAT INDEX
  VSB - VISIBILITY





USA.gov is the U.S. government's official web portal to all federal, state and local government web resources and services.